When you browse on this site, cookies collect data to enhance your experience and personalize the content and advertising you see.
Visit our Privacy Policy to learn more. By continuing to use the site, you agree to this use of cookies and data.
  • In Netherlands
  • List of Countries
  • For 7 days
  • Water Temperature
  • Weather Map
  • Weather Widgets
  • user-avatar
    Login

    Hourly Weather Montana

    Today, 14 December, Saturday

    Time Temperature Precipitation Wind Pressure Humidity
    00:00 +6°C° 0 mm 2 mps 719 mmHg 87%
    01:00 +6°C° 0 mm 2 mps 719 mmHg 87%
    02:00 +5°C° 0 mm 2 mps 719 mmHg 85%
    03:00 +5°C° 0 mm 2 mps 719 mmHg 85%
    04:00 +5°C° 0 mm 2 mps 719 mmHg 86%
    05:00 +5°C° 0 mm 2 mps 718 mmHg 86%
    06:00 +5°C° 0 mm 2 mps 718 mmHg 87%
    07:00 +5°C° 0 mm 1 mps 719 mmHg 87%
    08:00 +5°C° 0 mm 1 mps 719 mmHg 88%
    09:00 +6°C° 0 mm 1 mps 720 mmHg 85%
    10:00 +7°C° 0 mm 1 mps 720 mmHg 83%
    11:00 +8°C° 0 mm 1 mps 721 mmHg 80%
    12:00 +9°C° 0 mm 1 mps 721 mmHg 78%
    13:00 +9°C° 0 mm 1 mps 721 mmHg 76%
    14:00 +10°C° 0 mm 1 mps 722 mmHg 75%
    15:00 +9°C° 0 mm 1 mps 723 mmHg 79%
    16:00 +8°C° 0 mm 1 mps 724 mmHg 83%
    17:00 +8°C° 0 mm 1 mps 724 mmHg 87%
    18:00 +8°C° 0 mm 1 mps 725 mmHg 86%
    19:00 +8°C° 0 mm 1 mps 726 mmHg 86%
    20:00 +8°C° 0 mm 1 mps 727 mmHg 85%
    21:00 +8°C° 0 mm 1 mps 728 mmHg 85%
    22:00 +8°C° 0 mm 1 mps 729 mmHg 85%
    23:00 +8°C° 0 mm 1 mps 730 mmHg 85%

    Tomorrow, 15 December, Sunday

    Time Temperature Precipitation Wind Pressure Humidity
    00:00 +7°C° 0 mm 1 mps 730 mmHg 84%
    01:00 +7°C° 0 mm 1 mps 731 mmHg 83%
    02:00 +6°C° 0 mm 2 mps 732 mmHg 82%
    03:00 +6°C° 0 mm 2 mps 732 mmHg 78%
    04:00 +6°C° 0 mm 2 mps 733 mmHg 74%
    05:00 +6°C° 0 mm 2 mps 733 mmHg 70%
    06:00 +6°C° 0 mm 2 mps 734 mmHg 68%
    07:00 +6°C° 0 mm 2 mps 734 mmHg 65%
    08:00 +6°C° 0 mm 2 mps 735 mmHg 62%
    09:00 +7°C° 0 mm 2 mps 735 mmHg 58%
    10:00 +10°C° 0 mm 1 mps 736 mmHg 54%
    11:00 +12°C° 0 mm 1 mps 736 mmHg 50%
    12:00 +13°C° 0 mm 1 mps 736 mmHg 47%
    13:00 +13°C° 0 mm 1 mps 736 mmHg 44%
    14:00 +14°C° 0 mm 1 mps 735 mmHg 41%
    15:00 +13°C° 0 mm 1 mps 736 mmHg 45%
    16:00 +11°C° 0 mm 1 mps 736 mmHg 50%
    17:00 +10°C° 0 mm 1 mps 736 mmHg 54%
    18:00 +10°C° 0 mm 1 mps 737 mmHg 55%
    19:00 +9°C° 0 mm 1 mps 737 mmHg 57%
    20:00 +9°C° 0 mm 1 mps 737 mmHg 59%
    21:00 +8°C° 0 mm 1 mps 738 mmHg 60%
    22:00 +8°C° 0 mm 1 mps 738 mmHg 61%
    23:00 +8°C° 0 mm 1 mps 738 mmHg 62%

    Day after tomorrow, 16 December, Monday

    Time Temperature Precipitation Wind Pressure Humidity
    00:00 +8°C° 0 mm 1 mps 738 mmHg 61%
    01:00 +8°C° 0 mm 1 mps 739 mmHg 61%
    02:00 +8°C° 0 mm 1 mps 739 mmHg 61%
    03:00 +7°C° 0 mm 1 mps 739 mmHg 60%
    04:00 +7°C° 0 mm 1 mps 738 mmHg 60%
    05:00 +7°C° 0 mm 1 mps 738 mmHg 60%
    06:00 +7°C° 0 mm 1 mps 739 mmHg 61%
    07:00 +7°C° 0 mm 1 mps 739 mmHg 63%
    08:00 +7°C° 0 mm 1 mps 739 mmHg 64%
    09:00 +8°C° 0 mm 1 mps 739 mmHg 60%
    10:00 +10°C° 0 mm 1 mps 739 mmHg 56%
    11:00 +11°C° 0 mm 1 mps 740 mmHg 52%
    12:00 +12°C° 0 mm 1 mps 739 mmHg 51%
    13:00 +13°C° 0 mm 1 mps 739 mmHg 49%
    14:00 +14°C° 0 mm 1 mps 738 mmHg 47%
    15:00 +12°C° 0 mm 1 mps 738 mmHg 51%
    16:00 +11°C° 0 mm 1 mps 738 mmHg 55%
    17:00 +10°C° 0 mm 1 mps 738 mmHg 59%
    18:00 +10°C° 0 mm 1 mps 738 mmHg 59%
    19:00 +9°C° 0 mm 1 mps 739 mmHg 59%
    20:00 +9°C° 0 mm 1 mps 739 mmHg 60%
    21:00 +9°C° 0 mm 1 mps 739 mmHg 61%
    22:00 +9°C° 0 mm 1 mps 739 mmHg 62%
    23:00 +9°C° 0 mm 1 mps 739 mmHg 63%

    17 December, Tuesday

    Time Temperature Precipitation Wind Pressure Humidity
    00:00 +8°C° 0 mm 1 mps 739 mmHg 64%
    01:00 +8°C° 0 mm 1 mps 739 mmHg 65%
    02:00 +8°C° 0 mm 1 mps 739 mmHg 65%
    03:00 +8°C° 0 mm 1 mps 738 mmHg 65%
    04:00 +8°C° 0 mm 1 mps 738 mmHg 66%
    05:00 +8°C° 0 mm 1 mps 738 mmHg 66%
    06:00 +8°C° 0 mm 1 mps 738 mmHg 65%
    07:00 +7°C° 0 mm 1 mps 738 mmHg 65%
    08:00 +7°C° 0 mm 1 mps 738 mmHg 64%
    09:00 +9°C° 0 mm 1 mps 739 mmHg 60%
    10:00 +10°C° 0 mm 1 mps 739 mmHg 56%
    11:00 +12°C° 0 mm 1 mps 739 mmHg 52%
    12:00 +13°C° 0 mm 1 mps 739 mmHg 50%
    13:00 +14°C° 0 mm 1 mps 738 mmHg 49%
    14:00 +14°C° 0 mm 1 mps 738 mmHg 47%
    15:00 +13°C° 0 mm 1 mps 738 mmHg 51%
    16:00 +12°C° 0 mm 1 mps 738 mmHg 54%
    17:00 +10°C° 0 mm 0 mps 738 mmHg 58%
    18:00 +10°C° 0 mm 1 mps 738 mmHg 57%
    19:00 +10°C° 0 mm 1 mps 738 mmHg 57%
    20:00 +10°C° 0 mm 1 mps 738 mmHg 56%
    21:00 +10°C° 0 mm 1 mps 738 mmHg 56%
    22:00 +10°C° 0 mm 1 mps 738 mmHg 57%
    23:00 +9°C° 0 mm 1 mps 738 mmHg 57%

    18 December, Wednesday

    Time Temperature Precipitation Wind Pressure Humidity
    00:00 +9°C° 0 mm 1 mps 738 mmHg 58%
    01:00 +9°C° 0 mm 1 mps 738 mmHg 59%
    02:00 +9°C° 0 mm 1 mps 738 mmHg 59%
    03:00 +9°C° 0 mm 1 mps 738 mmHg 60%
    04:00 +9°C° 0 mm 1 mps 738 mmHg 60%
    05:00 +8°C° 0 mm 1 mps 738 mmHg 61%
    06:00 +8°C° 0 mm 1 mps 738 mmHg 60%
    07:00 +8°C° 0 mm 1 mps 738 mmHg 59%
    08:00 +8°C° 0 mm 1 mps 738 mmHg 58%
    09:00 +10°C° 0 mm 1 mps 738 mmHg 54%
    10:00 +12°C° 0 mm 1 mps 738 mmHg 50%
    11:00 +13°C° 0 mm 1 mps 739 mmHg 46%
    12:00 +14°C° 0 mm 1 mps 738 mmHg 45%
    13:00 +15°C° 0 mm 1 mps 738 mmHg 43%
    14:00 +15°C° 0 mm 1 mps 737 mmHg 42%
    15:00 +14°C° 0 mm 1 mps 737 mmHg 45%
    16:00 +13°C° 0 mm 1 mps 737 mmHg 48%
    17:00 +12°C° 0 mm 1 mps 737 mmHg 51%
    18:00 +11°C° 0 mm 1 mps 737 mmHg 50%
    19:00 +11°C° 0 mm 1 mps 737 mmHg 50%
    20:00 +11°C° 0 mm 1 mps 737 mmHg 49%
    21:00 +11°C° 0 mm 1 mps 737 mmHg 50%
    22:00 +11°C° 0 mm 1 mps 738 mmHg 52%
    23:00 +10°C° 0 mm 1 mps 738 mmHg 53%

    19 December, Thursday

    Time Temperature Precipitation Wind Pressure Humidity
    00:00 +10°C° 0 mm 1 mps 737 mmHg 54%
    01:00 +10°C° 0 mm 1 mps 737 mmHg 56%
    02:00 +10°C° 0 mm 1 mps 737 mmHg 57%
    03:00 +9°C° 0 mm 1 mps 737 mmHg 57%
    04:00 +9°C° 0 mm 1 mps 737 mmHg 57%
    05:00 +9°C° 0 mm 1 mps 736 mmHg 57%
    06:00 +9°C° 0 mm 1 mps 736 mmHg 57%
    07:00 +9°C° 0 mm 1 mps 736 mmHg 56%
    08:00 +9°C° 0 mm 1 mps 736 mmHg 56%
    09:00 +10°C° 0 mm 1 mps 736 mmHg 53%
    10:00 +11°C° 0 mm 1 mps 736 mmHg 51%
    11:00 +13°C° 0 mm 1 mps 737 mmHg 48%
    12:00 +13°C° 0 mm 1 mps 736 mmHg 48%
    13:00 +13°C° 0 mm 1 mps 735 mmHg 47%
    14:00 +14°C° 0 mm 1 mps 735 mmHg 46%
    15:00 +13°C° 0 mm 1 mps 735 mmHg 49%
    16:00 +12°C° 0 mm 1 mps 734 mmHg 51%
    17:00 +11°C° 0 mm 1 mps 734 mmHg 53%
    18:00 +11°C° 0 mm 1 mps 734 mmHg 55%
    19:00 +11°C° 0 mm 1 mps 734 mmHg 56%
    20:00 +9°C° 0 mm 2 mps 734 mmHg 57%
    21:00 +9°C° 0 mm 2 mps 734 mmHg 58%
    22:00 +10°C° 0 mm 1 mps 734 mmHg 60%
    23:00 +10°C° 0 mm 1 mps 734 mmHg 61%
    Show more